Dewpoint
73 73 74 75 75 75 75 76 76 76 76 75 75 75 75 75 74 74 75 74 74 74 75 75 75 76 76 77 77 77 77 77 76 75 75 76 76 75 76 76 76 75 75 75 74 74 74 74 74 75 74 76 76 76 76 75 75 75 75 75 75 75 76 76 76 76 76 76 76 76 76 76 76 75 74 75 75 74 74 74 74 73 73 74 75
72 73 73 74 75 75 76 76 76 76 76 76 75 75 75 74 74 74 74 74 74 74 75 75 76 76 76 77 77 77 77 76 76 76 76 75 75 75 76 76 75 74 75 75 74 74 75 74 74 74 74 75 75 75 76 75 75 75 75 76 76 75 75 76 75 75 75 76 76 76 76 76 75 75 75 75 75 74 75 74 74 73 73 74 74
73 73 74 75 75 75 76 76 76 76 76 76 75 75 74 74 74 75 75 74 75 75 74 75 76 76 76 76 77 77 77 76 76 76 76 76 75 75 75 75 75 74 74 75 75 75 75 75 74 74 74 74 74 75 75 76 75 75 75 75 75 75 75 75 75 75 75 76 76 76 76 75 75 75 75 75 75 74 75 75 75 75 74 75 75
72 73 73 75 76 76 76 76 76 76 76 76 75 75 75 74 75 75 76 76 76 76 75 76 76 76 76 76 76 76 76 76 76 76 76 76 75 75 75 76 75 75 75 74 74 75 76 76 77 76 76 76 75 75 75 75 75 75 75 75 75 75 76 76 75 75 75 75 75 75 75 74 75 75 75 74 74 74 75 75 75 74 74 74 74
70 72 73 74 74 75 75 76 76 76 76 76 75 75 75 75 75 76 76 76 76 76 76 76 76 76 75 75 76 75 76 76 76 76 76 75 75 75 75 75 75 75 75 75 75 75 76 76 76 76 76 76 76 75 74 75 75 75 75 75 75 75 75 75 75 74 74 74 74 74 73 74 74 75 75 74 74 74 75 75 75 75 75 74 74
68 70 72 73 74 75 75 76 76 75 75 75 75 75 75 75 75 75 76 76 76 76 76 75 75 76 76 76 75 75 76 77 76 76 76 75 75 75 75 75 75 75 75 74 74 75 75 75 76 75 76 76 76 76 75 75 75 75 75 75 75 76 75 75 74 74 74 73 73 73 73 73 73 73 75 74 74 74 74 74 74 74 74 74 74
67 69 70 72 73 75 76 75 75 76 75 76 76 76 76 75 75 75 75 76 76 75 75 75 75 75 75 75 75 75 76 76 76 76 76 75 75 75 75 76 76 76 75 75 75 75 74 75 76 76 75 76 75 75 75 75 75 76 76 76 76 75 75 74 74 74 73 73 73 73 72 72 73 73 74 75 74 74 74 73 73 73 73 73 74
66 67 69 71 74 75 76 75 76 76 76 77 77 76 76 76 76 75 76 76 74 75 75 75 75 75 75 75 75 76 76 75 75 76 76 75 75 75 75 75 75 75 74 74 74 74 74 75 75 75 75 75 75 75 74 75 76 76 76 76 76 75 75 75 75 73 74 75 75 76 71 72 72 72 74 74 75 74 74 74 74 74 74 73 72
68 68 69 71 73 75 75 76 76 76 76 76 76 76 76 76 76 76 75 75 75 76 75 75 75 75 75 75 76 76 76 75 75 75 75 75 75 75 75 75 75 74 74 74 74 74 74 74 74 75 75 75 75 75 75 76 76 76 76 75 75 75 75 75 74 74 75 74 74 74 71 71 71 71 73 74 74 74 73 74 73 74 74 74 74
68 68 69 72 73 76 76 77 76 76 76 76 75 75 75 75 75 75 75 76 75 75 75 75 75 74 75 75 75 76 75 76 76 75 74 75 75 75 75 74 75 75 74 74 74 74 74 74 75 75 75 74 74 74 75 76 76 76 75 75 75 75 76 75 74 74 75 73 74 71 71 73 71 72 73 75 74 74 74 74 74 74 73 74 74
66 67 69 71 74 76 77 77 76 76 76 76 76 76 75 75 75 75 75 76 76 75 75 75 74 74 75 75 75 76 76 75 75 75 75 75 75 75 75 74 75 75 75 75 74 74 74 74 74 74 74 74 74 75 75 76 76 76 75 75 74 75 75 74 74 74 73 73 72 71 72 74 72 72 74 74 74 73 73 74 74 74 73 73 73
66 70 72 74 78 76 76 76 76 76 76 75 75 74 74 74 74 74 75 75 75 75 74 75 75 74 74 75 75 75 74 74 74 75 74 75 75 75 74 74 75 76 76 75 75 75 75 75 75 75 75 75 75 75 76 76 76 76 75 74 73 74 74 74 74 76 73 72 71 69 69 70 72 72 74 73 73 73 74 74 74 73 73 73 73
67 70 72 74 75 77 76 76 75 75 75 74 74 74 74 74 74 74 74 75 75 75 75 75 75 75 74 74 74 74 73 74 75 75 75 75 75 75 74 74 75 75 75 75 75 75 75 75 75 75 75 75 75 76 76 76 75 75 74 73 72 75 75 74 74 74 73 72 70 70 71 72 72 74 73 73 74 73 74 74 74 74 73 73 74
67 69 71 73 74 77 76 76 75 75 75 74 74 74 74 74 74 74 74 75 75 74 74 74 73 74 74 75 74 74 74 75 75 74 74 74 74 74 74 74 74 74 75 75 75 75 75 75 75 75 75 75 75 75 75 75 74 74 74 73 73 73 76 74 73 75 72 71 71 70 72 73 72 74 73 73 73 73 73 73 74 74 74 74 74
68 70 72 73 73 74 76 75 75 75 75 75 75 74 74 74 74 74 74 74 75 73 74 74 74 74 74 74 75 74 74 75 75 74 75 75 74 74 74 74 74 74 75 75 76 76 76 76 75 75 75 75 75 74 74 73 73 73 73 74 73 73 73 70 71 74 70 71 71 71 72 72 74 73 73 73 73 73 73 73 73 74 74 74 74
69 71 71 72 73 74 74 76 75 75 76 75 75 75 75 74 74 74 74 74 74 74 74 74 74 74 74 74 74 74 74 75 74 74 75 75 74 74 74 74 74 74 75 75 76 76 76 76 76 75 75 74 74 74 74 73 73 73 73 74 74 74 75 74 71 72 70 70 71 72 71 72 74 74 74 74 74 74 74 73 73 73 73 74 73
69 72 71 72 72 73 73 74 74 75 76 75 75 75 75 75 74 74 75 75 74 74 73 73 73 73 73 74 74 74 74 74 74 74 74 74 75 75 74 74 74 74 74 74 75 75 75 75 76 76 76 75 75 74 74 74 73 72 73 74 74 75 75 76 68 69 70 71 70 71 72 72 74 74 74 73 74 74 73 73 73 73 73 73 73
69 70 70 70 72 73 73 74 74 74 74 74 75 75 75 75 74 74 74 74 74 74 74 74 73 73 74 74 75 74 74 75 74 75 75 75 74 75 74 74 75 74 74 75 75 75 75 75 75 75 76 76 76 75 75 74 73 73 73 74 74 75 76 76 68 69 69 71 71 73 73 74 74 74 73 74 74 74 74 73 73 73 73 73 73
69 70 69 70 71 71 72 74 74 74 73 74 74 74 74 74 75 74 74 74 75 74 74 74 74 74 75 74 74 75 75 75 75 74 74 74 74 74 74 74 75 75 75 74 74 74 75 75 75 76 76 76 76 76 75 74 74 73 73 74 75 76 77 76 66 67 69 70 71 72 73 75 74 73 73 73 73 73 73 73 73 72 72 72 72
70 70 70 71 72 73 74 73 73 73 73 74 73 74 74 74 74 75 75 75 75 74 74 74 74 75 75 74 74 74 74 74 75 74 75 74 75 74 75 75 75 74 74 74 74 74 74 75 75 75 75 75 75 75 75 74 74 74 74 74 74 76 75 68 65 67 68 70 72 73 74 74 74 73 73 73 73 73 73 73 72 72 72 72 72
68 69 71 71 72 73 74 74 74 73 73 73 73 73 73 74 74 75 75 75 74 74 74 74 74 75 74 74 74 74 74 74 74 74 75 73 75 75 75 75 75 75 74 74 73 74 75 75 75 75 75 75 75 75 75 75 73 74 73 74 74 75 71 71 66 69 69 71 73 73 75 74 73 73 73 73 73 73 73 72 72 72 72 72 71
68 70 71 72 72 73 73 73 74 74 73 73 73 73 74 73 75 75 74 74 74 74 73 74 74 74 75 74 74 74 74 75 74 75 74 74 74 75 75 75 74 74 74 74 74 75 75 75 75 75 75 75 75 74 74 74 75 74 75 74 74 73 74 73 67 69 69 71 73 74 74 73 73 73 73 73 73 72 73 72 72 72 72 72 71
69 69 70 72 72 73 73 73 74 74 73 73 73 74 73 74 73 73 74 74 74 73 73 73 73 74 74 74 75 74 74 75 75 74 74 74 73 74 75 75 74 74 74 74 75 75 75 75 75 75 75 75 75 76 73 72 73 75 75 74 75 75 74 69 68 69 70 71 72 74 74 73 73 73 73 72 72 72 72 72 72 72 72 71 72
67 68 70 71 73 73 73 73 74 74 75 74 74 74 74 75 74 74 73 73 73 75 74 73 74 73 74 74 74 74 74 75 74 75 74 73 73 75 75 75 74 74 75 74 74 74 74 75 74 75 76 76 76 76 75 75 72 74 75 74 70 69 70 68 66 69 70 70 73 75 74 74 73 73 72 72 73 72 72 72 72 72 72 72 72
66 68 70 70 72 73 73 73 74 74 74 74 74 75 76 75 72 72 73 73 73 73 74 73 73 74 74 74 74 74 74 74 74 74 74 74 74 74 74 74 74 74 74 75 75 75 74 74 75 75 76 75 75 75 73 71 72 71 72 68 68 68 61 67 68 69 71 73 74 75 75 74 74 73 73 73 73 73 72 72 73 72 72 72 72
64 67 69 70 70 73 73 72 72 75 75 75 74 76 75 74 74 72 73 74 74 73 74 73 74 74 73 73 74 74 74 74 74 75 74 74 74 74 74 74 75 74 75 75 75 76 76 74 74 73 74 74 72 72 70 67 66 65 71 72 72 72 66 65 68 71 71 73 75 75 75 75 74 74 74 74 73 73 73 72 72 72 72 72 72
62 65 70 70 70 71 73 72 72 74 74 75 75 75 75 75 74 72 73 73 72 73 73 73 75 75 74 73 73 73 74 74 74 75 74 74 73 73 73 74 74 74 74 74 73 74 74 75 74 73 73 71 68 70 71 65 67 63 70 69 72 67 67 65 67 71 72 73 75 76 75 75 74 74 74 73 73 73 74 73 72 72 72 72 71
62 64 67 70 68 70 73 73 73 74 74 75 75 75 76 73 73 75 75 75 73 72 71 72 74 75 75 76 75 73 73 75 74 76 74 73 73 73 73 72 73 74 75 74 72 73 74 74 74 72 71 70 62 63 64 66 64 65 63 71 71 67 64 63 67 71 71 72 74 76 75 75 74 74 73 73 73 73 73 73 72 72 72 72 72
60 63 65 68 68 69 71 71 72 73 74 73 74 75 75 75 74 73 73 74 74 72 72 73 72 73 75 76 74 73 74 72 73 75 74 73 73 72 72 71 72 72 75 74 73 75 74 74 74 72 73 72 67 66 65 64 66 68 64 63 61 70 68 67 71 68 71 72 73 75 75 75 75 74 75 74 73 73 73 72 72 72 72 72 73
60 62 64 67 67 69 70 70 72 74 73 73 73 74 74 74 72 74 75 74 73 73 74 73 73 73 73 76 74 71 72 70 72 74 72 72 72 72 71 71 72 73 74 74 74 75 74 73 72 74 69 70 68 71 73 65 60 66 68 64 60 57 68 66 66 65 71 73 72 73 75 75 75 74 74 74 73 73 73 73 73 73 73 74 74
61 61 62 64 66 67 69 71 73 74 73 72 73 72 73 73 73 72 73 72 73 74 74 73 71 72 74 77 76 76 70 69 70 71 73 72 73 73 71 71 73 71 73 73 73 72 74 75 75 76 75 77 75 71 74 72 68 63 64 60 67 67 64 67 64 63 63 71 70 73 74 75 75 74 74 74 74 73 74 74 74 75 74 74 74
60 61 63 64 63 64 66 68 70 72 72 72 73 72 73 72 74 73 73 72 73 71 71 71 72 72 73 76 77 76 75 70 71 71 72 72 71 72 72 73 71 71 72 69 75 76 76 74 76 76 76 74 76 71 71 71 69 64 71 61 62 65 67 69 61 57 58 68 71 70 73 72 74 75 75 75 75 75 75 74 74 75 75 75 74
61 61 62 62 63 63 64 66 68 71 72 74 72 73 72 71 71 70 72 69 71 71 70 70 72 73 76 76 76 76 75 73 75 73 72 71 70 73 70 70 71 73 75 72 72 76 75 76 78 78 76 72 70 71 67 66 70 68 60 61 59 63 72 69 58 57 58 62 69 70 71 71 73 74 75 75 76 75 75 75 75 75 75 75 75
62 62 61 62 63 63 64 65 67 68 69 70 72 71 70 70 70 70 73 71 68 68 69 71 73 74 75 76 75 76 76 76 76 75 74 73 73 72 72 73 75 75 76 77 78 78 77 76 73 76 75 73 72 71 68 66 61 66 68 63 66 67 63 64 63 66 61 62 65 71 72 72 73 74 74 75 75 75 76 75 75 75 75 75 75
61 60 61 63 63 63 63 63 66 67 68 71 69 70 70 68 69 70 70 72 69 68 67 69 71 72 73 75 76 76 75 76 76 77 73 73 69 70 71 72 75 77 76 77 76 76 75 74 77 73 73 74 67 71 71 70 63 65 68 71 67 66 72 60 63 64 63 62 65 63 68 73 74 74 74 74 76 76 75 75 75 75 75 76 76
59 61 63 63 62 64 64 63 65 66 68 70 71 72 69 70 72 71 69 70 67 66 66 66 67 69 72 74 76 76 76 77 77 78 75 74 71 70 73 75 78 78 75 78 77 76 77 77 74 72 72 70 72 69 72 74 66 62 70 66 70 72 62 64 67 56 57 67 66 69 71 70 73 75 75 72 72 74 77 76 76 75 76 76 76
60 61 62 63 64 65 65 63 64 66 68 67 71 73 73 71 71 68 67 68 64 64 65 64 66 67 70 72 75 76 77 76 78 74 79 73 73 71 72 73 76 77 79 77 77 75 75 69 79 78 75 77 71 62 65 72 70 62 61 58 68 72 67 71 68 63 62 68 63 62 66 71 73 72 74 74 74 74 75 78 76 77 76 77 77
61 62 63 64 64 65 64 63 65 66 69 70 72 71 70 72 71 69 72 66 62 62 63 64 66 66 69 73 75 76 77 76 75 77 78 75 75 73 72 76 77 77 78 76 77 74 76 74 75 79 76 76 74 69 69 67 57 57 65 55 65 69 66 72 71 72 68 68 69 63 64 65 65 65 66 72 73 73 70 75 77 77 78 77 78
60 62 64 66 65 66 67 68 66 67 69 72 74 73 72 74 68 69 69 70 70 64 64 65 64 66 67 73 76 75 77 76 76 77 79 76 76 74 76 77 77 78 77 75 75 76 76 75 74 77 78 78 74 71 68 68 59 59 55 58 64 70 67 67 71 73 66 59 67 66 61 64 62 67 72 72 71 72 72 72 73 75 75 77 79
61 63 68 66 68 68 67 70 70 67 69 71 72 70 70 70 67 69 69 70 68 68 68 65 65 66 69 72 76 76 77 77 75 78 80 80 75 76 76 75 77 78 78 74 75 76 76 75 75 73 75 75 73 71 69 69 66 69 67 63 65 67 72 65 67 70 67 64 68 67 62 60 60 63 65 64 70 67 73 75 75 75 75 76 77
63 64 65 66 67 68 69 69 70 70 70 70 70 68 69 70 69 67 68 69 69 69 65 65 65 67 70 72 75 73 76 76 76 76 78 78 77 79 77 77 76 77 77 77 74 75 76 77 78 79 73 74 70 68 68 66 71 72 71 68 70 72 70 73 70 66 58 59 63 65 65 61 63 64 68 70 67 67 71 75 77 77 77 77 75
64 64 66 68 69 68 68 69 70 71 70 69 71 70 72 69 69 69 68 70 70 70 70 68 66 67 74 75 76 74 76 77 77 77 77 77 78 76 77 77 78 78 77 77 76 76 76 77 76 78 77 73 72 64 66 68 72 67 68 65 67 68 67 62 61 58 57 58 55 64 70 62 55 58 61 70 71 65 66 72 74 69 74 80 75
62 63 65 67 69 69 72 72 70 70 70 70 72 73 72 73 70 70 70 69 69 70 67 69 68 67 70 72 75 76 76 76 76 77 76 75 79 79 77 79 77 78 78 78 76 76 78 74 75 75 75 74 72 69 75 74 69 64 73 72 65 65 69 69 63 58 55 53 57 55 55 56 57 61 64 67 66 67 60 64 67 73 79 80 77
63 63 65 67 68 72 72 73 72 71 72 72 73 71 72 74 76 74 75 72 69 73 74 73 71 69 69 69 75 76 75 73 73 73 74 76 76 77 76 77 78 78 79 78 77 77 76 78 75 75 76 72 69 68 67 73 71 71 68 67 66 65 71 69 66 63 56 53 51 48 47 52 53 59 65 62 63 69 67 70 75 78 77 79 73
61 63 64 65 68 69 72 73 73 72 72 73 73 75 76 76 77 77 76 75 73 72 72 71 69 71 69 71 73 75 75 73 72 72 73 77 78 78 77 79 79 79 78 78 78 75 74 75 76 77 74 75 70 70 73 67 71 77 74 72 66 68 66 62 57 72 57 55 49 47 63 53 53 67 69 63 62 65 60 65 72 76 76 76 76
61 62 64 64 69 69 72 74 74 73 71 72 75 76 76 76 76 75 75 73 75 72 71 71 68 68 67 69 72 71 71 72 73 74 73 75 77 76 76 76 77 78 79 77 75 75 75 75 75 74 75 75 74 73 64 74 68 75 75 77 73 71 72 69 66 72 74 59 57 48 56 55 51 61 68 59 60 60 65 63 71 73 73 76 75
60 61 63 64 69 70 72 73 74 74 72 75 76 77 75 75 74 72 73 72 72 73 77 72 73 69 70 70 71 72 74 70 70 73 74 76 77 77 77 77 78 77 77 78 77 73 71 71 74 77 76 76 77 76 72 67 75 72 64 64 67 71 68 73 73 67 66 69 62 59 47 57 52 53 57 54 62 66 69 65 66 67 70 72 72
60 61 62 63 70 73 73 75 75 75 74 75 76 76 75 75 74 73 72 72 68 73 74 75 72 78 77 70 70 71 73 74 72 76 75 75 76 77 78 78 78 75 76 78 77 74 76 76 76 77 81 80 78 76 74 72 73 76 69 67 70 70 68 67 67 68 70 68 70 65 56 59 59 59 63 55 54 57 68 66 66 65 71 69 73
61 61 62 64 69 71 74 74 75 76 75 75 75 75 76 75 74 71 73 73 75 74 75 74 75 75 74 75 73 71 74 76 74 73 75 75 77 78 78 78 76 76 77 75 75 73 73 75 79 80 79 77 79 79 79 76 70 68 73 74 71 71 65 62 64 66 72 72 67 63 68 59 58 58 58 56 62 60 63 67 71 65 74 72 75
61 62 62 64 67 70 73 74 75 76 75 75 75 75 75 75 75 73 73 73 73 75 75 75 76 75 74 75 76 78 72 76 73 75 76 75 76 78 76 75 77 74 75 77 73 74 75 77 77 76 78 78 79 78 77 76 75 73 72 76 79 75 71 67 66 65 63 71 72 66 61 59 64 65 65 59 60 61 60 67 69 66 69 74 75
63 63 62 65 67 69 71 73 75 76 76 75 75 75 74 74 74 73 72 72 73 74 74 76 76 76 76 75 76 77 75 75 72 74 74 72 75 78 76 74 75 77 78 76 76 74 72 72 71 77 78 78 79 80 74 76 74 81 68 79 78 68 71 67 72 71 68 68 67 63 63 65 62 66 67 62 70 58 63 58 62 66 73 73 72